weather.gov     
National Weather Service

Regional Weather Roundup
NWS Homepage
This page is being discontinued on March 12, 2014.
The same data is available at this site. Please update your bookmarks.
Thank you, and we apologize for the inconvenience.
Please send an email to SR-SRH.Webmaster@noaa.gov with any concerns.


Current Version
Previous Version:    01  02  03  04  05  06  07  08  09  10  11  12  13  14  15  16  17  18  19  20  21  22  23  24  25  26  27  28  29  30  
   31  32  33  34  35  36  37  38  39  40  41  42  43  44  45  46  47  48  49  50  51  52  53  54  55  56  57  58  59  60  
[Printable]
409
ASUS46 KPDT 011410
RWRPDT
PENDLETON REGIONAL WEATHER ROUNDUP
NATIONAL WEATHER SERVICE PENDLETON OREGON
700 AM PDT WED OCT 1 2014

NOTE: FAIR INDICATES FEW OR NO CLOUDS BELOW 12,000 FEET WITH NO
SIGNIFICANT WEATHER AND/OR OBSTRUCTIONS TO VISIBILITY.

# INDICATES UNOFFICIAL STATION AND DATA

WAZ520-011510-
EAST SLOPES OF WASHINGTON CASCADES

CITY            SKY/WX      TMP DP  RH  WIND    PRES   REMARKS
#BUMPING DAM    N/A         43  N/A N/A S1      N/A
#CLE ELUM HS    N/A         42  37  82  N1      30.10R
#CLE ELUM 2NW   N/A         39  37  92  W1      N/A
#CLE ELUM LAKE  N/A         N/A N/A N/A S2      30.11R
#CLIFFDEL 2NW   N/A         41  37  86  N1      N/A
#EASTON DOT     N/A         46  41  83  N1      N/A
#MANASTASH CYN  N/A         37  30  75  CALM    30.10S
#NELSON         N/A         40  38  92  CALM    30.16S
#NELSON 3SW     N/A         43  39  86  CALM    30.33S
#NILE           N/A         35  34  96  CALM    29.41S
#PEOH POINT     N/A         39  38  96  W7      N/A
#RONALD 2NW     N/A         43  38  82  N1      30.02R
#SNOWDEN        N/A         43  37  79  CALM    N/A
#TEANAWAY 4NE   N/A         35  34  96  CALM    N/A
#TROUT LAKE 1NE N/A         36  34  92  CALM    30.16R
$$

WAZ521-011510-
SIMCOE HIGHLANDS

CITY            SKY/WX      TMP DP  RH  WIND    PRES   REMARKS
#BICKLETON HS   N/A         40  30  67  W2      30.21S
#SATUS PASS DOT N/A         40  33  76  CALM    N/A
#CENTERVILLE 4W N/A         47  44  89  NW10    29.90R
#CENTERVILLE 1SWN/A         37  34  89  CALM    30.16R
#GOLDENDALE     N/A         38  37  96  CALM    N/A
#GOLDENDALE 1NE N/A         36  35  96  N1      N/A
#GOLDENDALE 1S  N/A         37  35  92  CALM    30.13R
#GOLDENDALE 5WNWN/A         37  35  92  CALM    30.15R
#GOODNOE HILLS  N/A         48  44  86  W8      30.09S
#LYLE 6NE       N/A         48  45  89  S5      30.12S
$$

WAZ026-011510-
KITTITAS VALLEY

CITY            SKY/WX      TMP DP  RH  WIND    PRES   REMARKS
ELLENSBURG AP   CLEAR       46  38  73  W3      30.13R
#ELLENSBURG CWU N/A         47  40  76  W3      30.08S
#ELLENSBURG 3NE N/A         47  40  76  N2      30.13R
#ELLENSBURG     N/A         46  43  89  S1      N/A
#KITTITAS 3S    N/A         37  34  89  CALM    30.12R
#THORP 6N       N/A         41  37  86  N8      30.14R
$$

WAZ027-011510-
YAKIMA VALLEY

CITY            SKY/WX      TMP DP  RH  WIND    PRES   REMARKS
YAKIMA AIRPORT  CLEAR       40  35  82  W3      30.15R
YAKIMA-VAGABOND CLEAR       46  37  71  E8      30.15R
#COWICHE 1N     N/A         51  39  63  W10     30.28S
#DONALD 2NE     N/A         51  37  59  E1      30.47R
#GRANDVIEW      N/A         41  37  86  CALM    30.16R
#MABTON         N/A         44  39  82  CALM    30.15R
#MOXEE 2E       N/A         45  35  68  CALM    30.10R
#NACHES 2SW     N/A         49  40  71  W7      30.14R
#TERRACE HTS    N/A         45  38  76  CALM    30.09S
#TOPPENISH      N/A         46  40  79  CALM    30.05R
#WAPATO 4NE     N/A         51  37  59  E1      30.47R
#WEST VALLEY    N/A         46  38  73  N1      30.11S
#WHITE SWAN 5E  N/A         39  36  89  NW2     30.15R
#WILEY CITY 3W  N/A         40  35  82  CALM    30.14R
$$

WAZ028-011510-
LOWER COLUMBIA BASIN...WASHINGTON

CITY            SKY/WX      TMP DP  RH  WIND    PRES   REMARKS
PASCO           CLEAR       39  39  100 CALM    30.15R
PROSSER AWOS    N/A         37  36  96  N2      30.19R
RICHLAND AWOS   CLEAR       48  41  77  CALM    30.15R
#BASIN CITY 5SW N/A         42  38  86  CALM    30.14R
#BENTON CITY    N/A         46  41  83  W2      30.05R
#CONNELL 5N     N/A         38  34  85  CALM    30.12R
#CONNELL 5NW    N/A         40  35  82  CALM    30.09R
#ELTOPIA        N/A         42  39  89  CALM    30.11R
#ELTOPIA 6NW    N/A         45  40  82  S1      29.10R
#KENNEWICK 3S   N/A         49  45  86  SW7     30.14R
#PASCO-BROADMOORN/A         44  41  89  CALM    30.05R
#PATERSON       N/A         47  43  86  NE1     30.14R
#PROSSER DOT    N/A         42  40  93  CALM    N/A
#PROSSER        N/A         49  38  66  CALM    30.14R
#SAGEMOOR 2W    N/A         45  39  79  CALM    29.99R
#TOUCHET 2S     N/A         53  43  69  SW8     30.12R
#WEST PASCO     N/A         44  38  79  CALM    30.16R
$$

WAZ029-011510-
FOOTHILLS OF THE BLUES...WASHINGTON

CITY            SKY/WX      TMP DP  RH  WIND    PRES   REMARKS
WALLA WALLA AP  CLEAR       50  42  74  S8      30.17R
#DAYTON SCHOOL  N/A         47  37  68  SE1     30.14R
#LOWDEN 2SE     N/A         43  41  93  E3      30.12R
#PLEASANT VIEW 1N/A         43  41  93  S7      30.16R
#PRESCOTT       N/A         40  38  92  CALM    30.14R
#SUDBURY        N/A         41  N/A N/A CALM    N/A
#WHITMAN COLLEGEN/A         51  43  74  SE3     30.19S
#WAITSBURG 8N   N/A         45  38  76  S3      30.12R
#WALLA WALLA 5E N/A         49  42  77  W7      N/A
#WALLA WALLA U  N/A         50  44  80  CALM    30.14R
#WHITMAN MISSIONN/A         44  42  93  CALM    30.16R
$$

WAZ030-011510-
BLUE MOUNTAINS...WASHINGTON

CITY            SKY/WX      TMP DP  RH  WIND    PRES   REMARKS
$$

ORZ009-041-WAZ024-011510-
COLUMBIA RIVER GORGE

CITY            SKY/WX      TMP DP  RH  WIND    PRES   REMARKS
HOOD RIVER AP   CLEAR       45  41  86  SW5     30.19S
THE DALLES AP   CLEAR       49  44  83  S5      30.18R
#ARLINGTON AIRPON/A         48  43  83  W5      29.98S
#ARLINGTON HS   N/A         50  43  77  CALM    30.09R
#LYLE           N/A         55  49  80  NE2     30.18R
#MARYHILL       N/A         52  44  74  CALM    N/A
#MARYHILL 2W    N/A         53  48  83  E5      N/A
#MOSIER 1S      N/A         49  37  63  CALM    N/A
#MURDOCK        N/A         57  51  80  W10     30.20R
#RUFUS DOT      N/A         55  43  64  N1      N/A

$$

ORZ510-011510-
NORTH CENTRAL OREGON

CITY            SKY/WX      TMP DP  RH  WIND    PRES   REMARKS
#CHENOWITH 1W   N/A         48  42  80  NW18    N/A    WCI 41
#COW CYN RST AREN/A         42  38  86  SW7     N/A
#DUFUR 9E       N/A         48  40  74  SW7     30.21R
#GRASS VALLEY   N/A         38  37  96  MISG    N/A
#GRASS VALLEY 1SN/A         39  35  85  SW1     30.22R
#KENT DOT       N/A         39  33  79  SW7     N/A
#MAUPIN SCHOOL  N/A         43  38  82  CALM    29.09R
#MORO SCHOOL    N/A         46  42  86  CALM    30.18R
#SHANIKO 5WSW   N/A         39  35  85  S7      N/A
#SHANIKO 4NW    N/A         41  36  82  SW2     30.18R
#TYGH VALLEY 2NEN/A         37  34  89  CALM    30.19R
#WAPANITIA AIRPON/A         41  37  86  CALM    30.19R
#WASCO DOT      N/A         44  41  89  SW2     N/A
#WASCO 5NE      N/A         46  41  83  CALM    30.15R
$$

ORZ511-011510-
CENTRAL OREGON

CITY            SKY/WX      TMP DP  RH  WIND    PRES   REMARKS
BEND AIRPORT    CLEAR       36  32  85  SW3     30.22R
MADRAS AIRPORT  MOCLDY      36  34  92  S3      30.22R
REDMOND AIRPORT CLEAR       33  30  89  CALM    30.21R
#BEND 6E        N/A         35  31  85  CALM    30.20R
#BEND 1SW       N/A         33  31  92  W2      N/A
#BEND-KIM LN    N/A         38  35  89  SW6     30.17R
#CROOKED RVR RANN/A         37  34  89  N13     30.19R WCI 29
#CULVER         N/A         37  34  89  CALM    30.17R
#CULVER 1E      N/A         40  38  92  CALM    30.22
#LAKE BILLY CHINN/A         39  38  96  CALM    30.27R
#POWELL BUTTE 3EN/A         35  33  92  SE2     N/A
#POWELL BUTTE   N/A         39  33  79  S2      29.82R
#PRINEVILLE 3N  N/A         33  30  89  CALM    30.16R
#WARM SPRINGS   N/A         38  34  85  CALM    30.18R


ORZ509-011510-
EAST SLOPES OF OREGON CASCADES

CITY            SKY/WX      TMP DP  RH  WIND    PRES   REMARKS
#BLUE BOX PASS  N/A         40  -9  12  CALM    N/A
#CAMP SHERMAN   N/A         27  24  88  CALM    30.28R
#LA PINE DOT    N/A         26  25  96  CALM    N/A
#LA PINE 4NW    N/A         26  23  88  CALM    30.27R
#LAVA BUTTE DOT N/A         28  28  100 W7      N/A
#SISTERS AIRPOR N/A         28  28  100 CALM    29.91S
#SISTERS ODOT   N/A         28  N/A N/A CALM    N/A
#SISTERS 3N     N/A         28  32  100 CALM    N/A
#SUNRIVER       N/A         31  30  96  CALM    30.12R
#SUNRIVER AP    N/A         30  29  96  CALM    30.18R
#SUTTLE LK DOT  N/A         34  34  100 W15     N/A    WCI 24
#TUMALO 3W      N/A         38  30  73  SW5     30.07R
#WANOGA BUTTE D N/A         34  31  89  W2      N/A

$$

ORZ044-011510-
LOWER COLUMBIA BASIN...OREGON

CITY            SKY/WX      TMP DP  RH  WIND    PRES   REMARKS
HERMISTON       CLEAR       48  40  74  SW5     30.16R
#BOARDMAN SCHOOLN/A         47  41  79  CALM    30.15R
#BOARDMAN 3W    N/A         47  42  83  S3      29.88R
#BOARDMAN 8SW   N/A         48  42  80  SW6     30.16R
#ECHO 8SW       N/A         51  38  61  SW5     30.13R
#IONE SCHOOL    N/A         53  40  61  S7      30.16R
#IRRIGON 4NW    N/A         44  40  86  SE5     N/A
#UMATILLA SCHOOLN/A         43  43  100 CALM    30.19R
#UMATILLA       N/A         46  39  76  CALM    30.14R
$$

ORZ507-011510-
NORTHERN FOOTHILLS OF THE BLUES

CITY            SKY/WX      TMP DP  RH  WIND    PRES   REMARKS
PENDLETON AIRPT CLEAR       46  39  76  CALM    30.16R
#ADAMS 3WNW     N/A         36  33  89  CALM    30.14S
#ATHENA         N/A         44  39  82  CALM    30.17R
#CAYUSE         N/A         45  40  82  E3      30.15R
#HELIX SCHOOL   N/A         40  36  85  CALM    30.14S
#HELIX 3N       N/A         44  40  86  S6      30.12R
#HOLDMAN 5SE    N/A         41  38  89  CALM    30.16R
#HOLDMAN 6E     N/A         46  40  79  N2      29.96R
#M-F GROVE ELEM N/A         51  40  66  CALM    30.14R
#M-FREEWATER 5SEN/A         50  42  74  CALM    30.16R
#PENDLETON DNTN N/A         46  35  65  CALM    28.97S
#PDT AQUATIC CTRN/A         47  34  60  CALM    30.14S
#PENDLETON 5NE  N/A         41  37  86  CALM    30.13R
#PDT SUNRIDGE   N/A         44  39  82  CALM    30.18R
#PENDLETON 7NW  N/A         44  36  73  CALM    27.00F
#PILOT ROCK     N/A         47  36  65  CALM    30.17R
#TUTUILLA       N/A         44  39  82  S1      30.16S
#UMAPINE 2E     N/A         49  43  80  CALM    30.13R

$$

ORZ508-011510-
SOUTHERN FOOTHILLS OF THE BLUES

CITY            SKY/WX      TMP DP  RH  WIND    PRES   REMARKS
LEXINGTON       MOCLEAR     46  39  76  S5      30.20R
#AJAX           N/A         45  32  60  SW5     30.10R
#CONDON SCHOOL  N/A         39  37  92  CALM    30.14R
#CONDON 5W      N/A         42  36  79  SW8     30.15R
#FOSSIL SCHOOL  N/A         38  35  89  CALM    30.16R
#HEPPNER EOC    N/A         47  39  74  E7      30.12R
#HEPPNER 4NE    N/A         42  38  86  CALM    30.16R
#LEXINGTON 2SE  N/A         46  38  73  SE3     30.16R
#MIKKALO        N/A         47  37  68  S5      30.16R
#RUGGS 5NE      N/A         42  38  86  S5      30.33S
#RUGGS 2SW      N/A         42  36  79  SW7     30.18R

$$

ORZ502-503-011510-
BLUE MOUNTAINS

CITY            SKY/WX      TMP DP  RH  WIND    PRES   REMARKS
MEACHAM         CLOUDY      38  36  92  CALM    30.17R
#BATTLE MTN DOT N/A         35  35  100 SE3     N/A
#HARDMAN 10S    N/A         39  36  89  CALM    30.20R
#HEPPNER 15SE   N/A         37  34  89  CALM    30.08R
#LADD CYN SMT   N/A         39  34  82  N2      N/A
#LADD CREEK ODOTN/A         37  36  96  SW2     N/A
#LONG CREEK HS  N/A         44  42  93  CALM    30.14R
#N POWDER DOT   N/A         36  36  100 N2      N/A
#PIKES PEAK     N/A         43  40  89  SW20    27.99S WCI 34
#TROY SCHOOL    N/A         42  37  82  NW3     30.02R
#UKIAH          N/A         31  29  92  CALM    30.22R
#WESTON 4E      N/A         42  39  89  S2      30.10R
$$

ORZ505-011510-
JOHN DAY BASIN

CITY            SKY/WX      TMP DP  RH  WIND    PRES   REMARKS
JOHN DAY        MOCLDY      44  39  82  CALM    30.20R
#JOHN DAY KJDY  N/A         43  38  82  N1      30.27F
#DAYVILLE SCHOOLN/A         44  38  79  CALM    30.16R
#MONUMENT HS    N/A         46  39  76  CALM    30.19R
#MT. VERNON 5SE N/A         43  38  82  CALM    30.14S
#WINLOCK        N/A         44  38  79  CALM    30.26R
$$

ORZ506-011510-
OCHOCO AND JOHN DAY HIGHLANDS

CITY            SKY/WX      TMP DP  RH  WIND    PRES   REMARKS
#BUCK CREEK DOT N/A         36  36  100 CALM    N/A
#HORSE RIDGE DO N/A         27  26  96  SE2     N/A
#KEYES SMT DOT  N/A         41  37  86  W3      N/A
#PAULINA SCHOOL N/A         26  23  88  CALM    30.18R
#PINE MTN OBS   N/A         33  32  96  CALM    N/A
#PRAIRIE CITY   N/A         36  36  100 CALM    30.32S
#SENECA         N/A         34  N/A N/A W1      N/A
#SENECA 9NW     N/A         37  34  89  CALM    30.14S
$$

ORZ049-011510-
GRANDE RONDE VALLEY

CITY            SKY/WX      TMP DP  RH  WIND    PRES   REMARKS
LA GRANDE       MOCLEAR     43  30  60  N8      30.16R
#COVE           N/A         42  41  96  CALM    30.08R
#COVE SCHOOL    N/A         42  39  89  CALM    30.14R
#COVE 6NW       N/A         38  33  82  CALM    30.20R
#ELGIN 3N       N/A         35  33  92  CALM    29.89R
#ELGIN 1E       N/A         36  32  85  CALM    N/A
#IMBLER SCHOOL  N/A         36  31  82  E1      30.13R
#LADD CYN DOT   N/A         42  38  86  SE7     N/A
#UNION 1S       N/A         42  40  93  CALM    30.08R
$$

ORZ050-011510-
WALLOWA COUNTY

CITY            SKY/WX      TMP DP  RH  WIND    PRES   REMARKS
#ENTERPRISE AP  N/A         35  32  89  CALM    30.09R
#ENTERPRISE HS  N/A         33  31  92  CALM    30.17R
#IMNAHA SCHOOL  N/A         50  41  71  CALM    30.13R
#IMNAHA 10S     N/A         45  40  82  SW3     30.14S
#JOSEPH 3N      N/A         31  29  92  CALM    30.16R
#JOSEPH 3W      N/A         34  33  96  CALM    29.98S
#LOSTINE        N/A         32  31  96  CALM    29.97R
#MT HOWARD 8000 N/A         28  26  92  W3      30.12S
#PROMISE 1S     N/A         38  34  85  CALM    30.26R
#SHEEP RDG 7000 N/A         31  28  88  CALM    30.20S
#WALLOWA SCHOOL N/A         33  32  96  CALM    31.11R



$$




U.S. Dept. of Commerce
NOAA National Weather Service
1325 East West Highway
Silver Spring, MD 20910
E-mail: w-nws.webmaster@noaa.gov
Page last modified: May 16, 2007
NATIONAL WEATHER SERVICE: for Safety, for Work, for Fun - FOR LIFE